Girona Airport

Jump to: basic info | weather | frequencies | runways | comments

Related pages: nearby airports | nearby navaids | notams | map

Basic information (top)

Codes: GRO LEGE
Location: lon 41.901001, lat 2.760550, elev 468 ft / 143 m msl
Status: medium_airport
Scheduled airline service: yes
Links: Wikipedia Mobile

Weather (top)

Current conditions (rec'd 2015/04/25 06:00Z):

LEGE 250600Z 00000KT 4000 BR FEW040 15/14 Q1013

Airport forecast (rec'd 2015/04/25 06:27Z):

TAF LEGE 250500Z 2506/2606 18010KT 9999 SCT030 TX25/2512Z TN14/2506Z 
      TEMPO 2513/2518 18015G25KT 
      TEMPO 2520/2606 VRB03KT

Frequencies (top)

Verify before use: may be inaccurate or out of date.

APP: 120.9 MHz (APP)
GND: 121.7 MHz (GND)
TWR: 118.5 MHz (TWR)

Runways (top)

02/20: 7,874 x 148 ft (2,400 x 45 m) — paved — lighted

Latest comments (top)

No comments yet for Girona Airport

More... (top)

See also NOTAMs and nearby airports and navaids, or visit the Girona Airport page at the main OurAirports website..